{"data":{"norad_id":43170,"intl_designator":"2018-011B","name":"YAOGAN-30 05A","alt_names":[],"object_type":"PAYLOAD","status":"ACTIVE","operator":null,"country":"PRC","launch_date":"2018-01-25","launch_site_code":"XICLF","launch_vehicle":null,"mission":null,"orbit_class":"UNKNOWN","rcs_meters":null,"size_class":null,"mass_kg":null,"dimensions":null,"purposes":[],"wikipedia_slug":null,"has_3d_model":false,"image_url":null,"decayed_at":null,"tle_current":{"epoch":"2026-05-25T02:45:02.752416Z","epoch_age_seconds":75449,"freshness":"FRESH","line1":"1 43170U 18011B   26145.11461519  .00002531  00000+0  18835-3 0  9990","line2":"2 43170  34.9965 291.5702 0002670 134.8212 225.2713 15.02616633454676","mean_motion":15.02616633,"eccentricity":0.000267,"inclination_deg":34.9965,"raan_deg":291.5702,"arg_perigee_deg":134.8212,"mean_anomaly_deg":225.2713,"bstar":0.00018835,"rev_number":45467,"period_min":95.83282710807,"perigee_km":556.97918528274,"apogee_km":560.68352638476,"semimajor_km":6936.9683558337,"source":"CELESTRAK","updated_at":"2026-05-25T13:37:55.786855Z"}}}